Kezdőlap
METAR-TAF:

METAR-TAF

Repülőterek :

Macomb Municipal Airport

Macomb, Illinois, Amerikai Egyesült Államok

földrajzi szélesség: 40-31-13N, földrajzi hosszúság: 090-39-09W, magasság: 216 m

Jelenlegi meteorológiai megfigyelések

A jelentés 7 perccel ezelõtt készült, 10:55 UTC
Északi szél 3 kt
Hőmérséklet 0°C
Páratartalom 86%
Légköri nyomás 1015 hPa
Látótávolság: 16.1 km
Borult 11000 lábon

METAR: KMQB 131055Z AUTO 35003KT 10SM OVC110 00/M02 A2998 RMK AO2 T00031017

Idő: 05:02 (11:02 UTC)


TAF: hiányzik

Meteorológiai megfigyelések és előrejelzések több, mint 4000 repülőtéren (METAR és TAF jelentéseket).

A térképen piros és sárga pontok jelzik az elérhető meteorológiai állomásokat.

Mozgassa az egeret a pont fölött, hogy megjelenjen az állomás neve.

Azután kattintson az időjárási megfigyelések és előrejelzések megtekintéséhez.

A térkép megváltoztatása: kattintson a fekete keresztel jelölt zöld gombra ráközelítéshez, a vonallal jelölt zöld gombra távolításhoz, vagy a zöld nyilakra a szomszédos térképek eléréséhez.


METAR-TAF: